SQ9NFI-4 Weather Reports


Display with metric or nautical units.
time (UTC)temp
F
wind
direction
speed
MPH
gust
MPH
rain 1hr
in
rain 24hr
in
rain mn
in
humidity
%
barometer
mb
20260902165402 67 325 0.0 0.0 0.00 0.00 0.00 79 1020.0
20260902164902 67 323 0.0 0.0 0.00 0.00 0.00 81 1020.0
20260902164402 68 323 0.0 0.0 0.00 0.00 0.00 80 1020.0
20260902163902 69 323 0.0 0.0 0.00 0.00 0.00 80 1020.0
20260902163402 69 323 0.0 0.0 0.00 0.00 0.00 77 1020.0
20260902162902 70 323 0.0 0.0 0.00 0.00 0.00 76 1020.0
20260902162402 71 323 0.0 0.0 0.00 0.00 0.00 73 1020.0
20260902161902 71 323 0.0 0.0 0.00 0.00 0.00 69 1020.0
20260902161402 71 322 0.0 0.0 0.00 0.00 0.00 69 1020.0
20260902160902 71 316 1.0 1.0 0.00 0.00 0.00 67 1020.0
20260902160402 73 332 0.0 0.0 0.00 0.00 0.00 60 1020.0
20260902155902 73 327 1.0 1.0 0.00 0.00 0.00 57 1020.0
20260902155402 73 339 4.0 4.0 0.00 0.00 0.00 56 1020.0
20260902154902 74 333 4.0 6.0 0.00 0.00 0.00 56 1020.0
20260902154402 74 281 3.0 4.0 0.00 0.00 0.00 56 1020.0
20260902153902 76 347 1.0 3.0 0.00 0.00 0.00 53 1020.0
20260902153402 76 326 4.0 6.0 0.00 0.00 0.00 52 1020.0
20260902152902 76 347 3.0 3.0 0.00 0.00 0.00 53 1020.0
20260902152402 75 321 2.0 6.0 0.00 0.00 0.00 53 1020.0
20260902151902 76 320 4.0 4.0 0.00 0.00 0.00 54 1020.0
20260902151402 76 340 4.0 4.0 0.00 0.00 0.00 53 1020.0
20260902150902 76 312 3.0 7.0 0.00 0.00 0.00 52 1020.0
20260902150402 76 314 4.0 6.0 0.00 0.00 0.00 51 1020.0
20260902145902 76 298 6.0 6.0 0.00 0.00 0.00 52 1020.0
20260902145402 76 317 7.0 7.0 0.00 0.00 0.00 52 1020.0
20260902144902 75 307 4.0 7.0 0.00 0.00 0.00 55 1020.0
20260902144402 76 329 6.0 9.0 0.00 0.00 0.00 53 1020.0
20260902143902 76 354 3.0 3.0 0.00 0.00 0.00 52 1020.0
20260902143402 76 330 3.0 6.0 0.00 0.00 0.00 56 1020.0
20260902142902 76 309 7.0 10.0 0.00 0.00 0.00 52 1020.0
20260902142402 76 319 2.0 3.0 0.00 0.00 0.00 53 1020.0
20260902141902 76 312 3.0 4.0 0.00 0.00 0.00 53 1020.0
20260902141402 74 323 2.0 3.0 0.00 0.00 0.00 57 1020.0
20260902140902 75 328 5.0 6.0 0.00 0.00 0.00 55 1020.0
20260902140402 74 339 7.0 9.0 0.00 0.00 0.00 56 1020.0
20260902135902 76 317 3.0 4.0 0.00 0.00 0.00 56 1020.3
20260902135402 76 301 7.0 12.0 0.00 0.00 0.00 54 1020.3
20260902134902 76 330 5.0 6.0 0.00 0.00 0.00 57 1020.3
20260902134402 76 303 3.0 5.0 0.00 0.00 0.00 57 1020.3
20260902133902 76 345 6.0 7.0 0.00 0.00 0.00 54 1020.3
20260902133402 76 330 6.0 9.0 0.00 0.00 0.00 53 1020.3
20260902132902 76 354 6.0 8.0 0.00 0.00 0.00 54 1020.3
20260902132402 75 327 3.0 4.0 0.00 0.00 0.00 56 1020.7
20260902131902 74 305 5.0 8.0 0.00 0.00 0.00 55 1020.7
20260902131402 76 343 2.0 3.0 0.00 0.00 0.00 58 1020.7
20260902130902 74 337 4.0 6.0 0.00 0.00 0.00 60 1020.7
20260902130402 72 293 4.0 5.0 0.00 0.00 0.00 61 1020.7
20260902125902 72 348 2.0 3.0 0.00 0.00 0.00 62 1020.7
20260902125402 72 323 4.0 5.0 0.00 0.00 0.00 61 1020.7
20260902124902 72 306 6.0 8.0 0.00 0.00 0.00 60 1020.7
20260902124402 73 337 3.0 5.0 0.00 0.00 0.00 62 1020.7
20260902123902 74 325 4.0 5.0 0.00 0.00 0.00 59 1020.7
20260902123402 74 307 5.0 5.0 0.00 0.00 0.00 59 1020.7
20260902122902 73 334 4.0 6.0 0.00 0.00 0.00 61 1020.7
20260902122402 73 322 6.0 8.0 0.00 0.00 0.00 61 1021.0
20260902121902 73 323 5.0 5.0 0.00 0.00 0.00 59 1021.0
20260902121403 73 332 6.0 6.0 0.00 0.00 0.00 58 1021.0
20260902120902 74 305 4.0 5.0 0.00 0.00 0.00 57 1021.0
20260902120402 75 321 2.0 5.0 0.00 0.00 0.00 56 1021.0
20260902115902 77 316 2.0 2.0 0.00 0.00 0.00 50 1021.0
20260902115402 77 342 3.0 3.0 0.00 0.00 0.00 52 1021.0
20260902114902 76 343 3.0 5.0 0.00 0.00 0.00 55 1021.0
20260902114402 76 332 4.0 6.0 0.00 0.00 0.00 55 1021.0
20260902113902 76 312 5.0 7.0 0.00 0.00 0.00 53 1021.0
20260902113402 75 308 4.0 8.0 0.00 0.00 0.00 54 1021.0
20260902112902 74 303 4.0 5.0 0.00 0.00 0.00 57 1021.0
20260902112402 73 341 9.0 10.0 0.00 0.00 0.00 56 1021.0
20260902111902 73 289 4.0 5.0 0.00 0.00 0.00 58 1021.0
20260902111402 73 327 1.0 1.0 0.00 0.00 0.00 60 1021.0
20260902110902 73 308 5.0 8.0 0.00 0.00 0.00 58 1021.0
20260902110402 73 312 2.0 3.0 0.00 0.00 0.00 57 1021.0
20260902105902 73 301 3.0 6.0 0.00 0.00 0.00 58 1021.7
20260902105402 74 321 4.0 4.0 0.00 0.00 0.00 57 1021.7
20260902104902 73 276 4.0 5.0 0.00 0.00 0.00 57 1021.7
20260902104402 73 271 4.0 6.0 0.00 0.00 0.00 57 1021.7
20260902103902 73 319 7.0 9.0 0.00 0.00 0.00 56 1021.7
20260902103402 73 278 2.0 4.0 0.00 0.00 0.00 56 1021.7
20260902102902 73 304 5.0 6.0 0.00 0.00 0.00 56 1021.7
20260902102402 73 319 4.0 7.0 0.00 0.00 0.00 60 1021.7
20260902101902 73 335 6.0 8.0 0.00 0.00 0.00 55 1021.7
20260902101402 74 314 5.0 6.0 0.00 0.00 0.00 57 1021.7
20260902100902 74 292 7.0 9.0 0.00 0.00 0.00 58 1021.7
20260902100402 73 317 4.0 4.0 0.00 0.00 0.00 58 1021.7
20260902095902 73 200 1.0 1.0 0.00 0.00 0.00 57 1022.0
20260902095402 73 310 6.0 10.0 0.00 0.00 0.00 60 1022.0
20260902094902 73 296 4.0 5.0 0.00 0.00 0.00 58 1021.7
20260902094402 73 236 2.0 2.0 0.00 0.00 0.00 57 1021.7
20260902093902 73 296 5.0 6.0 0.00 0.00 0.00 57 1021.7
20260902093402 73 311 4.0 6.0 0.00 0.00 0.00 58 1021.7
20260902092902 73 333 7.0 8.0 0.00 0.00 0.00 57 1021.7
20260902092402 73 349 7.0 9.0 0.00 0.00 0.00 58 1021.7
20260902091902 74 272 8.0 12.0 0.00 0.00 0.00 57 1021.7
20260902091402 74 304 8.0 10.0 0.00 0.00 0.00 55 1022.0
20260902090902 75 327 4.0 6.0 0.00 0.00 0.00 56 1022.0
20260902090402 74 327 5.0 7.0 0.00 0.00 0.00 56 1022.0
20260902085902 74 319 2.0 2.0 0.00 0.00 0.00 57 1022.0
20260902085402 74 313 1.0 1.0 0.00 0.00 0.00 57 1022.0
20260902084902 74 325 5.0 6.0 0.00 0.00 0.00 56 1022.0
20260902084402 73 238 4.0 6.0 0.00 0.00 0.00 58 1022.0
20260902083902 73 313 4.0 5.0 0.00 0.00 0.00 57 1022.0
20260902083402 74 312 1.0 1.0 0.00 0.00 0.00 58 1022.0
20260902082902 73 295 7.0 8.0 0.00 0.00 0.00 58 1022.0
20260902082402 73 336 7.0 10.0 0.00 0.00 0.00 59 1022.0
20260902081902 74 295 6.0 7.0 0.00 0.00 0.00 61 1022.0
20260902081402 73 286 4.0 6.0 0.00 0.00 0.00 58 1022.4
20260902080902 72 343 4.0 5.0 0.00 0.00 0.00 60 1022.4
20260902080402 71 311 5.0 9.0 0.00 0.00 0.00 61 1022.4
20260902075902 71 243 5.0 10.0 0.00 0.00 0.00 62 1022.0
20260902075402 71 273 5.0 8.0 0.00 0.00 0.00 62 1022.0
20260902074902 71 287 4.0 6.0 0.00 0.00 0.00 62 1022.0
20260902074402 71 323 1.0 2.0 0.00 0.00 0.00 63 1022.0
20260902073902 70 299 3.0 3.0 0.00 0.00 0.00 65 1022.0
20260902073402 70 315 5.0 10.0 0.00 0.00 0.00 62 1022.0
20260902072902 70 303 3.0 4.0 0.00 0.00 0.00 65 1022.0
20260902072402 70 343 2.0 4.0 0.00 0.00 0.00 66 1022.0
20260902071902 69 322 3.0 5.0 0.00 0.00 0.00 66 1022.0
20260902071402 69 324 2.0 2.0 0.00 0.00 0.00 68 1021.7
20260902070902 69 350 4.0 6.0 0.00 0.00 0.00 70 1021.7
20260902070402 68 307 1.0 1.0 0.00 0.00 0.00 69 1021.7
20260902065902 67 325 3.0 4.0 0.00 0.00 0.00 70 1021.7
20260902065402 67 294 2.0 2.0 0.00 0.00 0.00 72 1021.7
20260902064902 67 320 1.0 1.0 0.00 0.00 0.00 75 1021.7
20260902064402 67 287 1.0 1.0 0.00 0.00 0.00 76 1021.7
20260902063902 65 342 0.0 0.0 0.00 0.00 0.00 75 1021.7
20260902063402 65 340 0.0 0.0 0.00 0.00 0.00 80 1021.7
20260902062902 64 340 0.0 1.0 0.00 0.00 0.00 81 1021.7
20260902062402 63 337 0.0 0.0 0.00 0.00 0.00 88 1021.7
20260902061902 62 340 0.0 0.0 0.00 0.00 0.00 88 1021.7
20260902061402 61 338 0.0 0.0 0.00 0.00 0.00 94 1021.7
20260902060902 59 340 0.0 0.0 0.00 0.00 0.00 97 1021.7
20260902060402 58 340 0.0 0.0 0.00 0.00 0.00 99 1021.7
20260902055902 58 336 0.0 0.0 0.00 0.00 0.00 99 1021.0
20260902055402 57 335 0.0 0.0 0.00 0.00 0.00 99 1021.0
20260902054902 56 333 0.0 0.0 0.00 0.00 0.00 99 1021.0
20260902054402 55 337 0.0 0.0 0.00 0.00 0.00 99 1021.0
20260902053902 54 12 2.0 2.0 0.00 0.00 0.00 99 1021.0
20260902053402 53 327 0.0 0.0 0.00 0.00 0.00 99 1021.0
20260902052902 52 326 0.0 0.0 0.00 0.00 0.00 99 1021.0
20260902052402 51 325 0.0 0.0 0.00 0.00 0.00 99 1021.0
20260902051902 51 317 1.0 1.0 0.00 0.00 0.00 99 1021.0
20260902051402 51 326 0.0 1.0 0.00 0.00 0.00 99 1021.7
20260902050902 50 326 0.0 0.0 0.00 0.00 0.00 99 1021.7
20260902050402 49 308 0.0 1.0 0.00 0.00 0.00 99 1021.7
20260902045902 49 319 0.0 0.0 0.00 0.00 0.00 99 1021.0
20260902045402 48 287 2.0 2.0 0.00 0.00 0.00 99 1021.0
20260902044902 47 327 0.0 0.0 0.00 0.00 0.00 99 1021.0
20260902044402 47 327 0.0 0.0 0.00 0.00 0.00 99 1021.0
20260902043902 46 326 0.0 0.0 0.00 0.00 0.00 99 1021.0
20260902043402 46 323 0.0 0.0 0.00 0.00 0.00 99 1021.0
20260902042902 46 323 0.0 0.0 0.00 0.00 0.00 99 1021.0
20260902042402 46 335 0.0 0.0 0.00 0.00 0.00 99 1021.0
20260902041902 46 335 0.0 0.0 0.00 0.00 0.00 99 1021.0
20260902041402 46 331 0.0 0.0 0.00 0.00 0.00 99 1021.0
20260902040902 46 330 0.0 0.0 0.00 0.00 0.00 99 1021.0
20260902040402 46 330 0.0 0.0 0.00 0.00 0.00 99 1021.0
20260902035902 46 329 0.0 0.0 0.00 0.00 0.00 99 1021.0
20260902035402 46 330 0.0 0.0 0.00 0.00 0.00 99 1021.0
20260902034902 46 330 0.0 0.0 0.00 0.00 0.00 99 1021.0
20260902034402 46 326 0.0 0.0 0.00 0.00 0.00 99 1021.0
20260902033902 46 326 0.0 0.0 0.00 0.00 0.00 99 1021.0
20260902033402 46 326 0.0 0.0 0.00 0.00 0.00 99 1021.0
20260902032902 46 326 0.0 0.0 0.00 0.00 0.00 99 1021.0
20260902032402 46 326 0.0 0.0 0.00 0.00 0.00 99 1021.0
20260902031902 46 331 0.0 0.0 0.00 0.00 0.00 99 1021.0
20260902031402 47 336 0.0 0.0 0.00 0.00 0.00 99 1021.0
20260902030902 46 332 0.0 0.0 0.00 0.00 0.00 99 1021.0
20260902030402 46 332 0.0 0.0 0.00 0.00 0.00 99 1021.0
20260902025902 46 332 0.0 0.0 0.00 0.00 0.00 99 1021.0
20260902025402 46 332 0.0 0.0 0.00 0.00 0.00 99 1021.0
20260902024902 47 326 0.0 0.0 0.00 0.00 0.00 99 1021.0
20260902024402 47 329 0.0 0.0 0.00 0.00 0.00 99 1021.0
20260902023902 47 329 0.0 0.0 0.00 0.00 0.00 99 1021.0
20260902023402 47 329 0.0 0.0 0.00 0.00 0.00 99 1021.0
20260902022902 47 331 0.0 0.0 0.00 0.00 0.00 99 1021.0
20260902022402 47 331 0.0 0.0 0.00 0.00 0.00 99 1021.0
20260902021902 47 331 0.0 0.0 0.00 0.00 0.00 99 1021.0
20260902021402 47 329 0.0 0.0 0.00 0.00 0.00 99 1021.0
20260902020902 47 329 0.0 0.0 0.00 0.00 0.00 99 1021.0
20260902020402 47 329 0.0 0.0 0.00 0.00 0.00 99 1021.0
20260902015902 47 329 0.0 0.0 0.00 0.00 0.00 99 1021.0
20260902015402 47 326 0.0 0.0 0.00 0.00 0.00 99 1021.0
20260902014902 47 324 0.0 0.0 0.00 0.00 0.00 99 1021.0
20260902014402 47 326 0.0 0.0 0.00 0.00 0.00 99 1021.0
20260902013902 47 326 0.0 0.0 0.00 0.00 0.00 99 1021.0
20260902013402 47 326 0.0 0.0 0.00 0.00 0.00 99 1021.0
20260902012902 47 326 0.0 0.0 0.00 0.00 0.00 99 1021.0
20260902012402 47 326 0.0 0.0 0.00 0.00 0.00 99 1021.0
20260902011902 48 324 0.0 0.0 0.00 0.00 0.00 99 1021.0
20260902011402 48 322 0.0 0.0 0.00 0.00 0.00 99 1021.0
20260902010902 48 319 0.0 0.0 0.00 0.00 0.00 99 1021.0
20260902010402 48 331 0.0 0.0 0.00 0.00 0.00 99 1021.0
20260902005902 48 331 0.0 0.0 0.00 0.00 0.00 99 1021.0
20260902005402 48 331 0.0 0.0 0.00 0.00 0.00 99 1021.0
20260902004902 48 331 0.0 0.0 0.00 0.00 0.00 99 1021.0
20260902004402 48 331 0.0 0.0 0.00 0.00 0.00 99 1021.0
20260902003902 48 331 0.0 0.0 0.00 0.00 0.00 99 1021.0
20260902003402 48 331 0.0 0.0 0.00 0.00 0.00 99 1021.0
20260902002902 48 331 0.0 0.0 0.00 0.00 0.00 99 1021.0
20260902002402 48 331 0.0 0.0 0.00 0.00 0.00 99 1021.0
20260902001902 49 334 0.0 0.0 0.00 0.00 0.00 99 1021.0
20260902001402 49 326 0.0 0.0 0.00 0.00 0.00 99 1021.0
20260902000902 49 331 0.0 0.0 0.00 0.00 0.00 99 1021.0
20260902000402 49 329 0.0 0.0 0.00 0.00 0.00 99 1021.0
20260901235902 49 327 0.0 0.0 0.00 0.00 0.00 99 1021.0
20260901235402 49 333 0.0 0.0 0.00 0.00 0.00 99 1021.0
20260901234902 49 333 1.0 1.0 0.00 0.00 0.00 99 1021.0
20260901234402 49 333 0.0 0.0 0.00 0.00 0.00 99 1021.0
20260901233902 49 332 0.0 0.0 0.00 0.00 0.00 99 1021.0
20260901233402 49 332 0.0 0.0 0.00 0.00 0.00 99 1021.0
20260901232902 49 332 0.0 0.0 0.00 0.00 0.00 99 1021.0
20260901232402 49 328 0.0 0.0 0.00 0.00 0.00 99 1021.0
20260901231902 49 333 0.0 0.0 0.00 0.00 0.00 99 1021.0
20260901231402 50 333 0.0 0.0 0.00 0.00 0.00 99 1021.0
20260901230902 49 332 0.0 0.0 0.00 0.00 0.00 99 1021.0
20260901230402 50 330 0.0 0.0 0.00 0.00 0.00 99 1021.0
20260901225902 50 331 0.0 0.0 0.00 0.00 0.00 99 1021.0
20260901225402 50 334 0.0 0.0 0.00 0.00 0.00 99 1021.0
20260901224902 50 336 0.0 0.0 0.00 0.00 0.00 99 1021.0
20260901224402 50 336 0.0 0.0 0.00 0.00 0.00 99 1021.0
20260901223902 50 325 0.0 0.0 0.00 0.00 0.00 99 1021.0
20260901223402 50 339 0.0 0.0 0.00 0.00 0.00 99 1021.0
20260901222902 50 338 0.0 0.0 0.00 0.00 0.00 99 1021.0
20260901222402 51 338 0.0 0.0 0.00 0.00 0.00 99 1021.0
20260901221902 51 337 0.0 0.0 0.00 0.00 0.00 99 1021.0
20260901221402 51 337 0.0 0.0 0.00 0.00 0.00 99 1021.0
20260901220902 51 337 0.0 0.0 0.00 0.00 0.00 99 1021.0
20260901220402 51 338 0.0 0.0 0.00 0.00 0.00 99 1021.0
20260901215902 51 338 0.0 0.0 0.00 0.00 0.00 99 1021.0
20260901215402 51 340 0.0 0.0 0.00 0.00 0.00 99 1021.0
20260901214902 51 337 0.0 0.0 0.00 0.00 0.00 99 1021.0
20260901214402 51 340 0.0 0.0 0.00 0.00 0.00 99 1021.0
20260901213902 51 336 0.0 0.0 0.00 0.00 0.00 99 1021.0
20260901213402 51 336 0.0 0.0 0.00 0.00 0.00 99 1021.0
20260901212902 51 336 0.0 0.0 0.00 0.00 0.00 99 1021.0
20260901212401 52 336 0.0 0.0 0.00 0.00 0.00 99 1021.0
20260901211901 52 336 0.0 0.0 0.00 0.00 0.00 99 1021.0
20260901211401 52 336 0.0 0.0 0.00 0.00 0.00 99 1021.0
20260901210902 52 336 0.0 0.0 0.00 0.00 0.00 99 1021.0
20260901210402 52 332 0.0 0.0 0.00 0.00 0.00 99 1021.0
20260901205902 53 333 0.0 0.0 0.00 0.00 0.00 99 1021.0
20260901205402 53 330 0.0 0.0 0.00 0.00 0.00 99 1021.0
20260901204902 53 329 0.0 0.0 0.00 0.00 0.00 99 1021.0
20260901204402 53 329 0.0 0.0 0.00 0.00 0.00 99 1021.0
20260901203901 53 329 0.0 0.0 0.00 0.00 0.00 99 1021.0
20260901203401 53 329 0.0 0.0 0.00 0.00 0.00 99 1021.0
20260901202901 53 328 0.0 0.0 0.00 0.00 0.00 99 1021.0
20260901202401 53 328 0.0 0.0 0.00 0.00 0.00 99 1020.7
20260901201902 53 328 0.0 0.0 0.00 0.00 0.00 99 1020.7
20260901201402 53 329 0.0 0.0 0.00 0.00 0.00 99 1020.7
20260901200901 53 329 0.0 0.0 0.00 0.00 0.00 99 1020.7
20260901200401 53 329 0.0 0.0 0.00 0.00 0.00 99 1020.7
20260901195902 53 329 0.0 0.0 0.00 0.00 0.00 99 1020.7
20260901195402 53 328 0.0 0.0 0.00 0.00 0.00 99 1020.7
20260901194902 53 336 0.0 0.0 0.00 0.00 0.00 99 1020.7
20260901194401 53 336 0.0 0.0 0.00 0.00 0.00 99 1020.7
20260901193902 53 336 0.0 0.0 0.00 0.00 0.00 99 1020.7
20260901193402 54 335 0.0 0.0 0.00 0.00 0.00 99 1020.7
20260901192902 54 336 0.0 0.0 0.00 0.00 0.00 99 1020.7
20260901192402 54 336 0.0 0.0 0.00 0.00 0.00 99 1020.7
20260901191902 54 335 0.0 0.0 0.00 0.00 0.00 99 1020.7
20260901191402 55 336 0.0 0.0 0.00 0.00 0.00 99 1020.7
20260901190902 55 336 0.0 0.0 0.00 0.00 0.00 99 1020.7
20260901190402 55 336 0.0 0.0 0.00 0.00 0.00 99 1020.7
20260901185902 56 336 0.0 0.0 0.00 0.00 0.00 99 1020.7
20260901185402 56 336 0.0 0.0 0.00 0.00 0.00 99 1020.7
20260901184902 56 336 0.0 0.0 0.00 0.00 0.00 99 1020.7
20260901184402 56 336 0.0 0.0 0.00 0.00 0.00 99 1020.7
20260901183902 56 330 0.0 0.0 0.00 0.00 0.00 99 1020.7
20260901183401 56 329 0.0 0.0 0.00 0.00 0.00 98 1020.7
20260901182901 57 329 0.0 0.0 0.00 0.00 0.00 98 1020.7
20260901182401 57 328 0.0 0.0 0.00 0.00 0.00 98 1020.3
20260901181901 57 328 0.0 0.0 0.00 0.00 0.00 97 1020.3
20260901181402 58 328 0.0 0.0 0.00 0.00 0.00 96 1020.3
20260901180901 58 328 0.0 0.0 0.00 0.00 0.00 95 1020.3
20260901180401 58 328 0.0 0.0 0.00 0.00 0.00 94 1020.3
20260901175901 59 328 0.0 0.0 0.00 0.00 0.00 94 1020.0
20260901175401 59 324 0.0 0.0 0.00 0.00 0.00 92 1020.0
20260901174901 60 320 0.0 0.0 0.00 0.00 0.00 90 1020.0
20260901174401 60 320 0.0 0.0 0.00 0.00 0.00 88 1020.0
20260901173901 61 320 0.0 0.0 0.00 0.00 0.00 86 1020.0
20260901173401 62 319 0.0 0.0 0.00 0.00 0.00 86 1020.0
20260901172901 62 320 0.0 0.0 0.00 0.00 0.00 84 1020.0
20260901172401 63 319 0.0 0.0 0.00 0.00 0.00 82 1020.0
20260901171901 64 320 0.0 0.0 0.00 0.00 0.00 80 1020.0
20260901171401 65 319 0.0 0.0 0.00 0.00 0.00 77 1020.0
20260901170902 67 317 0.0 0.0 0.00 0.00 0.00 73 1020.0
20260901170401 68 319 0.0 1.0 0.00 0.00 0.00 69 1020.0
20260901165901 68 325 0.0 1.0 0.00 0.00 0.00 64 1020.0